Time,TemperatureF,DewpointF,PressureIn,WindDirection,WindDirectionDegrees,WindSpeedMPH,WindSpeedGustMPH,Humidity,HourlyPrecipIn,Conditions,Clouds,dailyrainin,SoftwareType,DateUTC
2013-05-11 00:01:00,62.2,56.9,0.00,WNW,293,0.0,0.0,83,0.00,,,0.00,WUHU216HW,2013-05-11 04:01:00,
2013-05-11 00:06:00,62.2,56.9,0.00,WNW,293,0.0,0.0,83,0.00,,,0.00,WUHU216HW,2013-05-11 04:06:00,
2013-05-11 00:11:00,62.2,56.9,0.00,WNW,293,0.0,0.0,83,0.00,,,0.00,WUHU216HW,2013-05-11 04:11:00,
2013-05-11 00:16:00,62.0,56.8,0.00,WNW,293,0.0,0.0,83,0.00,,,0.00,WUHU216HW,2013-05-11 04:16:00,
2013-05-11 00:21:00,61.8,56.6,0.00,WNW,293,0.0,0.0,83,0.00,,,0.00,WUHU216HW,2013-05-11 04:21:00,
2013-05-11 00:26:00,61.7,56.8,0.00,WNW,293,0.0,0.0,84,0.00,,,0.00,WUHU216HW,2013-05-11 04:26:00,
2013-05-11 00:31:00,61.7,56.8,0.00,WNW,293,0.0,0.0,84,0.00,,,0.00,WUHU216HW,2013-05-11 04:31:00,
2013-05-11 00:36:00,61.7,56.8,0.00,WNW,293,0.0,0.0,84,0.00,,,0.00,WUHU216HW,2013-05-11 04:36:00,
2013-05-11 00:41:00,61.5,56.6,0.00,WNW,293,0.0,0.0,84,0.00,,,0.00,WUHU216HW,2013-05-11 04:41:00,
2013-05-11 00:46:00,61.5,56.6,0.00,WNW,293,0.0,0.0,84,0.00,,,0.00,WUHU216HW,2013-05-11 04:46:00,
2013-05-11 00:51:00,61.5,56.6,0.00,WNW,293,0.0,0.0,84,0.00,,,0.00,WUHU216HW,2013-05-11 04:51:00,
2013-05-11 00:56:00,61.5,56.8,0.00,WNW,293,0.0,0.0,85,0.00,,,0.00,WUHU216HW,2013-05-11 04:56:00,
2013-05-11 01:01:00,61.3,56.8,0.00,WNW,293,0.0,0.0,85,0.00,,,0.00,WUHU216HW,2013-05-11 05:01:00,
2013-05-11 01:06:00,61.3,56.8,0.00,WNW,293,0.0,0.0,85,0.00,,,0.00,WUHU216HW,2013-05-11 05:06:00,
2013-05-11 01:11:00,61.3,56.8,0.00,WNW,293,0.0,0.0,85,0.00,,,0.00,WUHU216HW,2013-05-11 05:11:00,
2013-05-11 01:16:00,61.3,56.8,0.00,WNW,293,0.0,0.0,85,0.00,,,0.00,WUHU216HW,2013-05-11 05:16:00,
2013-05-11 01:21:00,61.3,56.8,0.00,WNW,293,0.0,0.0,85,0.00,,,0.00,WUHU216HW,2013-05-11 05:21:00,
2013-05-11 01:26:00,61.3,56.8,0.00,WNW,293,0.0,0.0,85,0.00,,,0.00,WUHU216HW,2013-05-11 05:26:00,
2013-05-11 01:31:00,61.3,56.8,0.00,WNW,293,0.0,0.0,85,0.00,,,0.00,WUHU216HW,2013-05-11 05:31:00,
2013-05-11 01:36:00,61.3,56.8,0.00,WNW,293,0.0,0.0,85,0.00,,,0.00,WUHU216HW,2013-05-11 05:36:00,
2013-05-11 01:41:00,61.3,56.8,0.00,WNW,293,0.0,0.0,85,0.00,,,0.00,WUHU216HW,2013-05-11 05:41:00,
2013-05-11 01:46:00,61.3,56.8,0.00,WNW,293,0.0,0.0,85,0.00,,,0.00,WUHU216HW,2013-05-11 05:46:00,
2013-05-11 01:51:00,61.3,56.8,0.00,WNW,293,0.0,0.0,85,0.00,,,0.00,WUHU216HW,2013-05-11 05:51:00,
2013-05-11 01:56:00,61.1,56.6,0.00,WNW,293,0.0,0.0,85,0.00,,,0.00,WUHU216HW,2013-05-11 05:56:00,
2013-05-11 02:01:00,61.1,56.6,0.00,WNW,293,0.0,0.0,85,0.00,,,0.00,WUHU216HW,2013-05-11 06:01:00,
2013-05-11 02:06:00,60.9,56.7,0.00,WNW,293,0.0,0.0,86,0.00,,,0.00,WUHU216HW,2013-05-11 06:06:00,
2013-05-11 02:11:00,60.9,56.7,0.00,North,0,0.0,0.0,86,0.00,,,0.00,WUHU216HW,2013-05-11 06:11:00,
2013-05-11 02:16:00,60.9,56.7,0.00,WNW,293,0.0,0.0,86,0.00,,,0.00,WUHU216HW,2013-05-11 06:16:00,
2013-05-11 02:21:00,60.9,56.7,0.00,WNW,293,0.0,0.0,86,0.00,,,0.00,WUHU216HW,2013-05-11 06:21:00,
2013-05-11 02:26:00,60.9,56.7,0.00,WNW,293,0.0,0.0,86,0.00,,,0.00,WUHU216HW,2013-05-11 06:26:00,
2013-05-11 02:31:00,60.9,56.7,0.00,WNW,293,0.0,0.0,86,0.00,,,0.00,WUHU216HW,2013-05-11 06:31:00,
2013-05-11 02:36:00,60.9,56.7,0.00,WNW,293,0.0,0.0,86,0.00,,,0.00,WUHU216HW,2013-05-11 06:36:00,
2013-05-11 02:41:00,60.9,56.7,0.00,WNW,293,0.0,0.0,86,0.00,,,0.00,WUHU216HW,2013-05-11 06:41:00,
2013-05-11 02:46:00,60.8,56.6,0.00,WNW,293,0.0,0.0,86,0.00,,,0.00,WUHU216HW,2013-05-11 06:46:00,
2013-05-11 02:51:00,60.8,56.6,0.00,WNW,293,0.0,0.0,86,0.00,,,0.00,WUHU216HW,2013-05-11 06:51:00,
2013-05-11 02:56:00,60.6,56.4,0.00,WNW,293,0.0,0.0,86,0.00,,,0.00,WUHU216HW,2013-05-11 06:56:00,
2013-05-11 03:01:00,60.6,56.4,0.00,WNW,293,0.0,0.0,86,0.00,,,0.00,WUHU216HW,2013-05-11 07:01:00,
2013-05-11 03:06:00,60.6,56.4,0.00,WNW,293,0.0,0.0,86,0.00,,,0.00,WUHU216HW,2013-05-11 07:06:00,
2013-05-11 03:11:00,60.6,56.4,0.00,WNW,293,0.0,0.0,86,0.00,,,0.00,WUHU216HW,2013-05-11 07:11:00,
2013-05-11 03:16:00,60.6,56.4,0.00,WNW,293,0.0,0.0,86,0.00,,,0.00,WUHU216HW,2013-05-11 07:16:00,
2013-05-11 03:21:00,60.4,56.2,0.00,WNW,293,0.0,0.0,86,0.00,,,0.00,WUHU216HW,2013-05-11 07:21:00,
2013-05-11 03:26:00,60.4,56.5,0.00,WNW,293,0.0,0.0,87,0.00,,,0.00,WUHU216HW,2013-05-11 07:26:00,
2013-05-11 03:31:00,60.0,56.2,0.00,WNW,293,0.0,0.0,87,0.00,,,0.00,WUHU216HW,2013-05-11 07:31:00,
2013-05-11 03:36:00,60.0,56.2,0.00,WNW,293,0.0,0.0,87,0.00,,,0.00,WUHU216HW,2013-05-11 07:36:00,
2013-05-11 03:41:00,59.9,56.0,0.00,WNW,293,0.0,0.0,87,0.00,,,0.00,WUHU216HW,2013-05-11 07:41:00,
2013-05-11 03:46:00,59.7,55.8,0.00,WNW,293,0.0,0.0,87,0.00,,,0.00,WUHU216HW,2013-05-11 07:46:00,
2013-05-11 03:51:00,59.7,55.8,0.00,WNW,293,0.0,0.0,87,0.00,,,0.00,WUHU216HW,2013-05-11 07:51:00,
2013-05-11 03:56:00,59.7,55.8,0.00,WNW,293,0.0,0.0,87,0.00,,,0.00,WUHU216HW,2013-05-11 07:56:00,
2013-05-11 04:01:00,59.7,55.8,0.00,WNW,293,0.0,0.0,87,0.00,,,0.00,WUHU216HW,2013-05-11 08:01:00,
2013-05-11 04:06:00,59.5,55.6,0.00,WNW,293,0.0,0.0,87,0.00,,,0.00,WUHU216HW,2013-05-11 08:06:00,
2013-05-11 04:11:00,59.5,55.6,0.00,WNW,293,0.0,0.0,87,0.00,,,0.00,WUHU216HW,2013-05-11 08:11:00,
2013-05-11 04:16:00,59.1,55.3,0.00,WNW,293,0.0,0.0,87,0.00,,,0.00,WUHU216HW,2013-05-11 08:16:00,
2013-05-11 04:21:00,58.8,54.9,0.00,WNW,293,0.0,0.0,87,0.00,,,0.00,WUHU216HW,2013-05-11 08:21:00,
2013-05-11 04:26:00,58.8,54.9,0.00,WNW,293,0.0,0.0,87,0.00,,,0.00,WUHU216HW,2013-05-11 08:26:00,
2013-05-11 04:31:00,58.8,54.9,0.00,WNW,293,0.0,0.0,87,0.00,,,0.00,WUHU216HW,2013-05-11 08:31:00,
2013-05-11 04:36:00,58.8,54.9,0.00,WNW,293,0.0,0.0,87,0.00,,,0.00,WUHU216HW,2013-05-11 08:36:00,
2013-05-11 04:41:00,58.8,54.9,0.00,WNW,293,0.0,0.0,87,0.00,,,0.00,WUHU216HW,2013-05-11 08:41:00,
2013-05-11 04:46:00,58.6,55.2,0.00,WNW,293,0.0,0.0,88,0.00,,,0.00,WUHU216HW,2013-05-11 08:46:00,
2013-05-11 04:51:00,58.6,54.7,0.00,WNW,293,0.0,0.0,87,0.00,,,0.00,WUHU216HW,2013-05-11 08:51:00,
2013-05-11 04:56:00,58.6,54.7,0.00,WNW,293,0.0,0.0,87,0.00,,,0.00,WUHU216HW,2013-05-11 08:56:00,
2013-05-11 05:01:00,58.4,54.7,0.00,WNW,293,0.0,0.0,87,0.00,,,0.00,WUHU216HW,2013-05-11 09:01:00,
2013-05-11 05:06:00,58.2,54.4,0.00,WNW,293,0.0,0.0,87,0.00,,,0.00,WUHU216HW,2013-05-11 09:06:00,
2013-05-11 05:11:00,58.1,54.5,0.00,WNW,293,0.0,0.0,88,0.00,,,0.00,WUHU216HW,2013-05-11 09:11:00,
2013-05-11 05:16:00,57.9,54.3,0.00,WNW,293,0.0,0.0,88,0.00,,,0.00,WUHU216HW,2013-05-11 09:16:00,
2013-05-11 05:21:00,57.9,54.3,0.00,WNW,293,0.0,0.0,88,0.00,,,0.00,WUHU216HW,2013-05-11 09:21:00,
2013-05-11 05:26:00,57.9,54.3,0.00,WNW,293,0.0,0.0,88,0.00,,,0.00,WUHU216HW,2013-05-11 09:26:00,
2013-05-11 05:31:00,57.9,54.3,0.00,WNW,293,0.0,0.0,88,0.00,,,0.00,WUHU216HW,2013-05-11 09:31:00,
2013-05-11 05:36:00,57.9,54.3,0.00,WNW,293,0.0,0.0,88,0.00,,,0.00,WUHU216HW,2013-05-11 09:36:00,
2013-05-11 05:41:00,57.9,54.3,0.00,WNW,293,0.0,0.0,88,0.00,,,0.00,WUHU216HW,2013-05-11 09:41:00,
2013-05-11 05:46:00,57.9,54.3,0.00,WNW,293,0.0,0.0,88,0.00,,,0.00,WUHU216HW,2013-05-11 09:46:00,
2013-05-11 05:51:00,57.9,54.3,0.00,WNW,293,0.0,0.0,88,0.00,,,0.00,WUHU216HW,2013-05-11 09:51:00,
2013-05-11 05:56:00,58.1,54.5,0.00,WNW,293,0.0,0.0,88,0.00,,,0.00,WUHU216HW,2013-05-11 09:56:00,
2013-05-11 06:01:00,58.1,54.5,0.00,WNW,293,0.0,0.0,88,0.00,,,0.00,WUHU216HW,2013-05-11 10:01:00,
2013-05-11 06:06:00,57.9,54.3,0.00,WNW,293,0.0,0.0,88,0.00,,,0.00,WUHU216HW,2013-05-11 10:06:00,
2013-05-11 06:11:00,57.9,54.3,0.00,WNW,293,0.0,0.0,88,0.00,,,0.00,WUHU216HW,2013-05-11 10:11:00,
2013-05-11 06:16:00,57.9,54.3,0.00,WNW,293,0.0,0.0,88,0.00,,,0.00,WUHU216HW,2013-05-11 10:16:00,
2013-05-11 06:21:00,57.9,54.3,0.00,WNW,293,0.0,0.0,88,0.00,,,0.00,WUHU216HW,2013-05-11 10:21:00,
2013-05-11 06:26:00,57.9,54.3,0.00,WNW,293,0.0,0.0,88,0.00,,,0.00,WUHU216HW,2013-05-11 10:26:00,
2013-05-11 06:31:00,57.9,54.3,0.00,WNW,293,0.0,0.0,88,0.00,,,0.00,WUHU216HW,2013-05-11 10:31:00,
2013-05-11 06:36:00,57.9,54.3,0.00,WNW,293,0.0,0.0,88,0.00,,,0.00,WUHU216HW,2013-05-11 10:36:00,
2013-05-11 06:41:00,57.9,54.3,0.00,WNW,293,0.0,0.0,88,0.00,,,0.00,WUHU216HW,2013-05-11 10:41:00,
2013-05-11 06:46:00,57.9,54.3,0.00,WNW,293,0.0,0.0,88,0.00,,,0.00,WUHU216HW,2013-05-11 10:46:00,
2013-05-11 06:51:00,57.7,54.2,0.00,WNW,293,0.0,0.0,88,0.00,,,0.00,WUHU216HW,2013-05-11 10:51:00,
2013-05-11 06:56:00,57.7,54.2,0.00,WNW,293,0.0,0.0,88,0.00,,,0.00,WUHU216HW,2013-05-11 10:56:00,
2013-05-11 07:01:00,57.7,54.2,0.00,WNW,293,0.0,0.0,88,0.00,,,0.00,WUHU216HW,2013-05-11 11:01:00,
2013-05-11 07:06:00,57.7,54.2,0.00,WNW,293,0.0,0.0,88,0.00,,,0.00,WUHU216HW,2013-05-11 11:06:00,
2013-05-11 07:11:00,57.7,54.2,0.00,WNW,293,0.0,0.0,88,0.00,,,0.00,WUHU216HW,2013-05-11 11:11:00,
2013-05-11 07:16:00,57.9,54.3,0.00,WNW,293,0.0,0.0,88,0.00,,,0.00,WUHU216HW,2013-05-11 11:16:00,
2013-05-11 07:21:00,57.9,54.3,0.00,WNW,293,0.0,0.0,88,0.00,,,0.00,WUHU216HW,2013-05-11 11:21:00,
2013-05-11 07:26:00,57.9,54.3,0.00,WNW,293,0.0,0.0,88,0.00,,,0.00,WUHU216HW,2013-05-11 11:26:00,
2013-05-11 07:31:00,57.9,54.3,0.00,WNW,293,0.0,0.0,88,0.00,,,0.00,WUHU216HW,2013-05-11 11:31:00,
2013-05-11 07:36:00,58.1,54.5,0.00,WNW,293,0.0,0.0,88,0.00,,,0.00,WUHU216HW,2013-05-11 11:36:00,
2013-05-11 07:41:00,58.2,54.7,0.00,WNW,293,0.0,0.0,88,0.00,,,0.00,WUHU216HW,2013-05-11 11:41:00,
2013-05-11 07:46:00,58.2,54.7,0.00,WNW,293,0.0,0.0,88,0.00,,,0.00,WUHU216HW,2013-05-11 11:46:00,
2013-05-11 07:51:00,58.2,54.7,0.00,WNW,293,0.0,0.0,88,0.00,,,0.00,WUHU216HW,2013-05-11 11:51:00,
2013-05-11 07:56:00,58.4,54.9,0.00,WNW,293,0.0,0.0,88,0.00,,,0.00,WUHU216HW,2013-05-11 11:56:00,
2013-05-11 08:01:00,58.6,55.1,0.00,WNW,293,0.0,0.0,88,0.00,,,0.00,WUHU216HW,2013-05-11 12:01:00,
2013-05-11 08:06:00,58.8,55.2,0.00,WNW,293,0.0,0.0,88,0.00,,,0.00,WUHU216HW,2013-05-11 12:06:00,
2013-05-11 08:11:00,58.8,55.2,0.00,WNW,293,0.0,0.0,88,0.00,,,0.00,WUHU216HW,2013-05-11 12:11:00,
2013-05-11 08:17:00,58.8,55.2,0.00,WNW,293,0.0,0.0,88,0.00,,,0.00,WUHU216HW,2013-05-11 12:17:00,
2013-05-11 08:22:00,58.8,55.2,0.00,WNW,293,0.0,0.0,88,0.00,,,0.00,WUHU216HW,2013-05-11 12:22:00,
2013-05-11 08:27:00,58.8,55.2,0.00,WNW,293,0.0,0.0,88,0.00,,,0.00,WUHU216HW,2013-05-11 12:27:00,
2013-05-11 08:31:00,58.8,55.2,0.00,WNW,293,0.0,0.0,88,0.00,,,0.00,WUHU216HW,2013-05-11 12:31:00,
2013-05-11 08:37:00,58.8,55.2,0.00,WNW,293,0.0,0.0,88,0.00,,,0.00,WUHU216HW,2013-05-11 12:37:00,
2013-05-11 08:41:00,59.1,55.6,0.00,WNW,293,0.0,0.0,88,0.00,,,0.00,WUHU216HW,2013-05-11 12:41:00,
2013-05-11 08:47:00,59.3,55.8,0.00,WNW,293,0.0,0.0,88,0.00,,,0.00,WUHU216HW,2013-05-11 12:47:00,
2013-05-11 08:51:00,59.3,55.8,0.00,WNW,293,0.0,0.0,88,0.00,,,0.00,WUHU216HW,2013-05-11 12:51:00,
2013-05-11 08:57:00,59.5,56.0,0.00,WNW,293,0.0,0.0,88,0.00,,,0.00,WUHU216HW,2013-05-11 12:57:00,
2013-05-11 09:01:00,59.5,56.0,0.00,WNW,293,0.0,0.0,88,0.00,,,0.00,WUHU216HW,2013-05-11 13:01:00,
2013-05-11 09:07:00,59.7,56.1,0.00,WNW,293,0.0,0.0,88,0.00,,,0.00,WUHU216HW,2013-05-11 13:07:00,
2013-05-11 09:11:00,59.9,56.3,0.00,WNW,293,0.0,0.0,88,0.00,,,0.00,WUHU216HW,2013-05-11 13:11:00,
2013-05-11 09:17:00,60.0,56.5,0.00,WNW,293,0.0,0.0,88,0.00,,,0.00,WUHU216HW,2013-05-11 13:17:00,
2013-05-11 09:21:00,60.4,57.2,0.00,WNW,293,0.0,0.0,88,0.00,,,0.00,WUHU216HW,2013-05-11 13:21:00,
2013-05-11 09:26:00,60.6,57.4,0.00,WNW,293,0.0,0.0,89,0.00,,,0.00,WUHU216HW,2013-05-11 13:26:00,
2013-05-11 09:31:00,60.9,57.7,0.00,WNW,293,0.0,0.0,89,0.00,,,0.00,WUHU216HW,2013-05-11 13:31:00,
2013-05-11 09:36:00,61.1,57.9,0.00,WNW,293,0.0,0.0,89,0.00,,,0.00,WUHU216HW,2013-05-11 13:36:00,
2013-05-11 09:41:00,61.3,58.1,0.00,North,0,0.0,0.0,89,0.00,,,0.00,WUHU216HW,2013-05-11 13:41:00,
2013-05-11 09:46:00,61.5,57.9,0.00,WNW,293,0.0,0.0,88,0.00,,,0.00,WUHU216HW,2013-05-11 13:46:00,
2013-05-11 09:51:00,61.7,58.1,0.00,WNW,293,0.0,0.0,88,0.00,,,0.00,WUHU216HW,2013-05-11 13:51:00,
2013-05-11 09:56:00,61.8,58.3,0.00,WNW,293,0.0,0.0,88,0.00,,,0.00,WUHU216HW,2013-05-11 13:56:00,
2013-05-11 10:01:00,62.0,58.4,0.00,WNW,293,0.0,0.0,88,0.00,,,0.00,WUHU216HW,2013-05-11 14:01:00,
2013-05-11 10:06:00,62.4,58.8,0.00,WNW,293,0.0,0.0,88,0.00,,,0.00,WUHU216HW,2013-05-11 14:06:00,
2013-05-11 10:11:00,62.4,58.8,0.00,WNW,293,0.0,0.0,88,0.00,,,0.00,WUHU216HW,2013-05-11 14:11:00,
2013-05-11 10:16:00,62.4,58.8,0.00,WNW,293,0.0,0.0,88,0.00,,,0.00,WUHU216HW,2013-05-11 14:16:00,
2013-05-11 10:21:00,62.7,59.2,0.00,WNW,293,0.0,0.0,88,0.00,,,0.00,WUHU216HW,2013-05-11 14:21:00,
2013-05-11 10:26:00,62.9,59.3,0.00,WNW,293,0.0,0.0,88,0.00,,,0.00,WUHU216HW,2013-05-11 14:26:00,
2013-05-11 10:31:00,63.1,59.2,0.00,WNW,293,0.0,0.0,87,0.00,,,0.00,WUHU216HW,2013-05-11 14:31:00,
2013-05-11 10:36:00,63.5,59.5,0.00,WNW,293,0.0,0.0,87,0.00,,,0.00,WUHU216HW,2013-05-11 14:36:00,
2013-05-11 10:41:00,64.0,60.1,0.00,West,270,0.0,0.0,87,0.00,,,0.00,WUHU216HW,2013-05-11 14:41:00,
2013-05-11 10:46:00,64.2,60.6,0.00,West,270,0.0,0.0,87,0.00,,,0.00,WUHU216HW,2013-05-11 14:46:00,
2013-05-11 10:51:00,64.9,60.6,0.00,ESE,113,0.0,0.0,86,0.00,,,0.00,WUHU216HW,2013-05-11 14:51:00,
2013-05-11 10:56:00,65.3,60.6,0.00,ESE,113,0.0,0.0,85,0.00,,,0.00,WUHU216HW,2013-05-11 14:56:00,
2013-05-11 11:01:00,65.4,60.8,0.00,ESE,113,0.0,0.0,85,0.00,,,0.00,WUHU216HW,2013-05-11 15:01:00,
2013-05-11 11:06:00,65.8,60.8,0.00,ESE,113,0.0,0.0,84,0.00,,,0.00,WUHU216HW,2013-05-11 15:06:00,
2013-05-11 11:11:00,66.0,61.0,0.00,ESE,113,0.0,0.0,84,0.00,,,0.00,WUHU216HW,2013-05-11 15:11:00,
2013-05-11 11:16:00,66.0,60.6,0.00,ESE,113,0.0,0.0,83,0.00,,,0.00,WUHU216HW,2013-05-11 15:16:00,
2013-05-11 11:21:00,66.0,60.3,0.00,ESE,113,0.0,0.0,82,0.00,,,0.00,WUHU216HW,2013-05-11 15:21:00,
2013-05-11 11:26:00,66.2,60.5,0.00,ESE,113,0.0,0.0,82,0.00,,,0.00,WUHU216HW,2013-05-11 15:26:00,
2013-05-11 11:31:00,66.2,60.3,0.00,ENE,68,0.0,0.0,82,0.00,,,0.00,WUHU216HW,2013-05-11 15:31:00,
2013-05-11 11:36:00,66.2,60.4,0.00,East,90,0.0,0.0,81,0.00,,,0.00,WUHU216HW,2013-05-11 15:36:00,
2013-05-11 11:41:00,66.3,60.4,0.00,SE,135,0.0,0.0,81,0.00,,,0.00,WUHU216HW,2013-05-11 15:41:00,
2013-05-11 11:46:00,66.7,60.7,0.00,SE,135,0.0,0.0,81,0.00,,,0.00,WUHU216HW,2013-05-11 15:46:00,
2013-05-11 11:51:00,67.1,60.8,0.00,SE,135,0.0,0.0,80,0.00,,,0.00,WUHU216HW,2013-05-11 15:51:00,
2013-05-11 11:56:00,67.2,60.9,0.00,SE,135,0.0,0.0,80,0.00,,,0.00,WUHU216HW,2013-05-11 15:56:00,
2013-05-11 12:01:00,67.6,60.9,0.00,SE,135,0.0,0.0,79,0.00,,,0.00,WUHU216HW,2013-05-11 16:01:00,
2013-05-11 12:06:00,67.8,61.1,0.00,SE,135,0.0,0.0,79,0.00,,,0.00,WUHU216HW,2013-05-11 16:06:00,
2013-05-11 12:11:00,68.1,61.1,0.00,SSW,203,0.0,0.0,78,0.00,,,0.00,WUHU216HW,2013-05-11 16:11:00,
2013-05-11 12:16:00,68.5,61.0,0.00,SSW,203,0.0,0.0,77,0.00,,,0.00,WUHU216HW,2013-05-11 16:16:00,
2013-05-11 12:21:00,68.5,60.6,0.00,WSW,248,0.0,0.0,76,0.00,,,0.00,WUHU216HW,2013-05-11 16:21:00,
2013-05-11 12:26:00,68.5,60.5,0.00,WSW,248,0.0,0.0,76,0.00,,,0.00,WUHU216HW,2013-05-11 16:26:00,
2013-05-11 12:31:00,68.1,60.3,0.00,WSW,248,0.0,0.0,76,0.00,,,0.00,WUHU216HW,2013-05-11 16:31:00,
2013-05-11 12:36:00,67.8,60.0,0.00,WSW,248,0.0,0.0,76,0.00,,,0.00,WUHU216HW,2013-05-11 16:36:00,
2013-05-11 12:41:00,67.4,59.6,0.00,WSW,248,0.0,0.0,76,0.00,,,0.00,WUHU216HW,2013-05-11 16:41:00,
2013-05-11 12:46:00,67.1,59.6,0.00,WSW,248,0.0,0.0,77,0.00,,,0.00,WUHU216HW,2013-05-11 16:46:00,
2013-05-11 12:51:00,66.9,59.8,0.00,WSW,248,0.0,0.0,78,0.00,,,0.00,WUHU216HW,2013-05-11 16:51:00,
2013-05-11 12:56:00,67.1,60.4,0.00,SW,225,0.0,0.0,79,0.00,,,0.00,WUHU216HW,2013-05-11 16:56:00,
2013-05-11 13:01:00,67.6,61.3,0.00,SSE,158,0.0,0.0,80,0.00,,,0.00,WUHU216HW,2013-05-11 17:01:00,
2013-05-11 13:06:00,67.8,61.1,0.00,SSE,158,0.0,0.0,79,0.00,,,0.00,WUHU216HW,2013-05-11 17:06:00,
2013-05-11 13:11:00,68.1,61.4,0.00,SSE,158,0.0,0.0,79,0.00,,,0.00,WUHU216HW,2013-05-11 17:11:00,
2013-05-11 13:16:00,68.7,61.9,0.00,SSE,158,0.0,0.0,79,0.00,,,0.00,WUHU216HW,2013-05-11 17:16:00,
2013-05-11 13:21:00,69.4,62.4,0.00,SSE,158,0.0,0.0,79,0.00,,,0.00,WUHU216HW,2013-05-11 17:21:00,
2013-05-11 13:26:00,69.6,62.4,0.00,SSE,158,0.0,0.0,78,0.00,,,0.00,WUHU216HW,2013-05-11 17:26:00,
2013-05-11 13:31:00,70.1,62.9,0.00,SE,135,0.0,0.0,78,0.00,,,0.00,WUHU216HW,2013-05-11 17:31:00,
2013-05-11 13:36:00,70.3,62.7,0.00,SE,135,0.0,0.0,77,0.00,,,0.00,WUHU216HW,2013-05-11 17:36:00,
2013-05-11 13:41:00,70.3,62.9,0.00,SE,135,0.0,0.0,77,0.00,,,0.00,WUHU216HW,2013-05-11 17:41:00,
2013-05-11 13:46:00,70.5,62.5,0.00,SE,135,0.0,0.0,76,0.00,,,0.00,WUHU216HW,2013-05-11 17:46:00,
2013-05-11 13:51:00,70.3,62.3,0.00,SE,135,0.0,0.0,76,0.00,,,0.00,WUHU216HW,2013-05-11 17:51:00,
2013-05-11 13:56:00,70.1,61.7,0.00,SE,135,0.0,0.0,75,0.00,,,0.00,WUHU216HW,2013-05-11 17:56:00,
2013-05-11 14:01:00,70.1,61.7,0.00,SE,135,0.0,0.0,75,0.00,,,0.00,WUHU216HW,2013-05-11 18:01:00,
2013-05-11 14:06:00,69.9,61.6,0.00,SE,135,0.0,0.0,75,0.00,,,0.00,WUHU216HW,2013-05-11 18:06:00,
2013-05-11 14:11:00,69.6,61.2,0.00,SE,135,0.0,0.0,75,0.00,,,0.00,WUHU216HW,2013-05-11 18:11:00,
2013-05-11 14:16:00,69.4,61.1,0.00,SE,135,0.0,0.0,75,0.00,,,0.00,WUHU216HW,2013-05-11 18:16:00,
2013-05-11 14:21:00,69.0,60.7,0.00,SE,135,0.0,0.0,75,0.00,,,0.00,WUHU216HW,2013-05-11 18:21:00,
2013-05-11 14:26:00,68.7,60.8,0.00,SE,135,0.0,0.0,76,0.00,,,0.00,WUHU216HW,2013-05-11 18:26:00,
2013-05-11 14:31:00,68.5,60.6,0.00,SE,135,0.0,0.0,76,0.00,,,0.00,WUHU216HW,2013-05-11 18:31:00,
2013-05-11 14:36:00,68.1,60.7,0.00,SE,135,0.0,0.0,77,0.00,,,0.00,WUHU216HW,2013-05-11 18:36:00,
2013-05-11 14:41:00,68.3,61.2,0.00,SE,135,0.0,0.0,78,0.00,,,0.00,WUHU216HW,2013-05-11 18:41:00,
2013-05-11 14:46:00,68.5,61.4,0.00,SE,135,0.0,0.0,78,0.00,,,0.00,WUHU216HW,2013-05-11 18:46:00,
2013-05-11 14:51:00,68.7,61.5,0.00,SE,135,0.0,0.0,78,0.00,,,0.00,WUHU216HW,2013-05-11 18:51:00,
2013-05-11 14:56:00,68.9,61.7,0.00,SE,135,0.0,0.0,78,0.00,,,0.00,WUHU216HW,2013-05-11 18:56:00,
2013-05-11 15:01:00,69.4,62.2,0.00,SE,135,0.0,0.0,78,0.00,,,0.00,WUHU216HW,2013-05-11 19:01:00,
2013-05-11 15:06:00,69.6,62.4,0.00,SE,135,0.0,0.0,78,0.00,,,0.00,WUHU216HW,2013-05-11 19:06:00,
2013-05-11 15:11:00,69.9,62.7,0.00,SE,135,0.0,0.0,78,0.00,,,0.00,WUHU216HW,2013-05-11 19:11:00,
2013-05-11 15:16:00,69.9,62.3,0.00,ESE,113,0.0,0.0,77,0.00,,,0.00,WUHU216HW,2013-05-11 19:16:00,
2013-05-11 15:21:00,69.9,62.3,0.00,ESE,113,0.0,0.0,77,0.00,,,0.00,WUHU216HW,2013-05-11 19:21:00,
2013-05-11 15:26:00,69.6,61.6,0.00,ESE,113,0.0,0.0,76,0.00,,,0.00,WUHU216HW,2013-05-11 19:26:00,
2013-05-11 15:31:00,69.4,61.3,0.00,ESE,113,0.0,0.0,76,0.02,,,0.02,WUHU216HW,2013-05-11 19:31:00,
2013-05-11 15:36:00,68.5,60.6,0.00,ESE,113,0.0,0.0,76,0.04,,,0.04,WUHU216HW,2013-05-11 19:36:00,
2013-05-11 15:41:00,67.8,60.3,0.00,ESE,113,0.0,0.0,77,0.04,,,0.04,WUHU216HW,2013-05-11 19:41:00,
2013-05-11 15:46:00,67.6,60.5,0.00,SE,135,0.0,0.0,78,0.04,,,0.04,WUHU216HW,2013-05-11 19:46:00,
2013-05-11 15:51:00,67.6,60.9,0.00,SE,135,0.0,0.0,79,0.04,,,0.04,WUHU216HW,2013-05-11 19:51:00,
2013-05-11 15:56:00,68.1,61.8,0.00,SE,135,0.0,0.0,80,0.04,,,0.04,WUHU216HW,2013-05-11 19:56:00,
2013-05-11 16:01:00,68.5,62.5,0.00,SE,135,0.0,0.0,81,0.04,,,0.04,WUHU216HW,2013-05-11 20:01:00,
2013-05-11 16:06:00,68.7,62.6,0.00,ESE,113,0.0,0.0,81,0.04,,,0.04,WUHU216HW,2013-05-11 20:06:00,
2013-05-11 16:11:00,68.9,62.1,0.00,SE,135,0.0,0.0,79,0.04,,,0.04,WUHU216HW,2013-05-11 20:11:00,
2013-05-11 16:16:00,69.0,62.2,0.00,SE,135,0.0,0.0,79,0.04,,,0.04,WUHU216HW,2013-05-11 20:16:00,
2013-05-11 16:21:00,69.2,62.4,0.00,SE,135,0.0,0.0,79,0.04,,,0.04,WUHU216HW,2013-05-11 20:21:00,
2013-05-11 16:26:00,69.6,62.7,0.00,SE,135,0.0,0.0,79,0.02,,,0.04,WUHU216HW,2013-05-11 20:26:00,
2013-05-11 16:31:00,69.6,62.4,0.00,SE,135,0.0,0.0,78,0.02,,,0.04,WUHU216HW,2013-05-11 20:31:00,
2013-05-11 16:36:00,69.4,61.8,0.00,South,180,0.0,0.0,77,0.00,,,0.04,WUHU216HW,2013-05-11 20:36:00,
2013-05-11 16:41:00,69.0,61.3,0.00,ENE,68,0.0,0.0,77,0.00,,,0.04,WUHU216HW,2013-05-11 20:41:00,
2013-05-11 16:46:00,68.5,60.6,0.00,WSW,248,0.0,0.0,76,0.00,,,0.04,WUHU216HW,2013-05-11 20:46:00,
2013-05-11 16:51:00,67.8,60.0,0.00,South,180,0.0,0.0,76,0.00,,,0.04,WUHU216HW,2013-05-11 20:51:00,
2013-05-11 16:56:00,67.1,59.6,0.00,SW,225,0.0,0.0,77,0.00,,,0.04,WUHU216HW,2013-05-11 20:56:00,
2013-05-11 17:01:00,66.5,59.5,0.00,NW,315,0.0,0.0,78,0.02,,,0.06,WUHU216HW,2013-05-11 21:01:00,
2013-05-11 17:06:00,65.4,58.8,0.00,WNW,293,0.0,4.9,79,0.12,,,0.14,WUHU216HW,2013-05-11 21:06:00,
2013-05-11 17:11:00,64.7,58.4,0.00,WNW,293,0.0,4.9,80,0.14,,,0.18,WUHU216HW,2013-05-11 21:11:00,
2013-05-11 17:16:00,64.2,58.2,0.00,WNW,293,0.0,0.0,81,0.18,,,0.22,WUHU216HW,2013-05-11 21:16:00,
2013-05-11 17:21:00,64.0,58.0,0.00,WNW,293,0.0,0.0,81,0.20,,,0.24,WUHU216HW,2013-05-11 21:21:00,
2013-05-11 17:26:00,63.6,58.0,0.00,WNW,293,0.0,0.0,82,0.22,,,0.26,WUHU216HW,2013-05-11 21:26:00,
2013-05-11 17:31:00,63.6,58.0,0.00,WNW,293,0.0,0.0,82,0.22,,,0.26,WUHU216HW,2013-05-11 21:31:00,
2013-05-11 17:36:00,63.5,58.2,0.00,WNW,293,0.0,0.0,83,0.22,,,0.26,WUHU216HW,2013-05-11 21:36:00,
2013-05-11 17:41:00,63.5,58.2,0.00,WNW,293,0.0,0.0,83,0.22,,,0.26,WUHU216HW,2013-05-11 21:41:00,
2013-05-11 17:46:00,63.5,58.5,0.00,WNW,293,0.0,0.0,84,0.22,,,0.26,WUHU216HW,2013-05-11 21:46:00,
2013-05-11 17:51:00,63.5,58.5,0.00,WNW,293,0.0,0.0,84,0.22,,,0.26,WUHU216HW,2013-05-11 21:51:00,
2013-05-11 17:56:00,63.6,58.7,0.00,WNW,293,0.0,0.0,84,0.22,,,0.26,WUHU216HW,2013-05-11 21:56:00,
2013-05-11 18:01:00,63.6,58.7,0.00,WNW,293,0.0,0.0,84,0.12,,,0.26,WUHU216HW,2013-05-11 22:01:00,
2013-05-11 18:06:00,63.6,58.7,0.00,WNW,293,0.0,0.0,84,0.08,,,0.26,WUHU216HW,2013-05-11 22:06:00,
2013-05-11 18:11:00,63.5,58.9,0.00,WNW,293,0.0,0.0,85,0.08,,,0.26,WUHU216HW,2013-05-11 22:11:00,
2013-05-11 18:16:00,63.5,58.9,0.00,WNW,293,0.0,0.0,85,0.04,,,0.26,WUHU216HW,2013-05-11 22:16:00,
2013-05-11 18:21:00,63.3,58.7,0.00,WNW,293,0.0,0.0,85,0.00,,,0.26,WUHU216HW,2013-05-11 22:21:00,
2013-05-11 18:26:00,63.3,58.7,0.00,WNW,293,0.0,0.0,85,0.00,,,0.26,WUHU216HW,2013-05-11 22:26:00,
2013-05-11 18:31:00,63.3,58.7,0.00,WNW,293,0.0,0.0,85,0.00,,,0.26,WUHU216HW,2013-05-11 22:31:00,
2013-05-11 18:36:00,63.3,58.7,0.00,WNW,293,0.0,0.0,85,0.00,,,0.26,WUHU216HW,2013-05-11 22:36:00,
2013-05-11 18:41:00,63.3,59.0,0.00,WNW,293,0.0,0.0,86,0.00,,,0.26,WUHU216HW,2013-05-11 22:41:00,
2013-05-11 18:46:00,63.3,59.0,0.00,North,0,0.0,0.0,86,0.00,,,0.26,WUHU216HW,2013-05-11 22:46:00,
2013-05-11 18:51:00,63.3,59.0,0.00,WNW,293,0.0,0.0,86,0.00,,,0.26,WUHU216HW,2013-05-11 22:51:00,
2013-05-11 18:56:00,63.3,59.0,0.00,WNW,293,0.0,0.0,86,0.00,,,0.26,WUHU216HW,2013-05-11 22:56:00,
2013-05-11 19:01:00,63.3,59.0,0.00,WNW,293,0.0,0.0,86,0.00,,,0.26,WUHU216HW,2013-05-11 23:01:00,
2013-05-11 19:06:00,63.3,59.0,0.00,WNW,293,0.0,0.0,86,0.00,,,0.26,WUHU216HW,2013-05-11 23:06:00,
2013-05-11 19:11:00,63.3,59.0,0.00,WNW,293,0.0,0.0,86,0.00,,,0.26,WUHU216HW,2013-05-11 23:11:00,
2013-05-11 19:16:00,63.1,58.8,0.00,WNW,293,0.0,0.0,86,0.00,,,0.26,WUHU216HW,2013-05-11 23:16:00,
2013-05-11 19:21:00,63.1,58.8,0.00,WNW,293,0.0,0.0,86,0.00,,,0.26,WUHU216HW,2013-05-11 23:21:00,
2013-05-11 19:26:00,63.1,58.8,0.00,WNW,293,0.0,0.0,86,0.00,,,0.26,WUHU216HW,2013-05-11 23:26:00,
2013-05-11 19:31:00,63.1,59.2,0.00,WNW,293,0.0,0.0,87,0.00,,,0.26,WUHU216HW,2013-05-11 23:31:00,
2013-05-11 19:36:00,62.9,59.0,0.00,WNW,293,0.0,0.0,87,0.00,,,0.26,WUHU216HW,2013-05-11 23:36:00,
2013-05-11 19:41:00,62.9,59.0,0.00,WNW,293,0.0,0.0,87,0.00,,,0.26,WUHU216HW,2013-05-11 23:41:00,
2013-05-11 19:46:00,62.9,59.0,0.00,WNW,293,0.0,0.0,87,0.00,,,0.26,WUHU216HW,2013-05-11 23:46:00,
2013-05-11 19:51:00,62.9,59.0,0.00,WNW,293,0.0,0.0,87,0.00,,,0.26,WUHU216HW,2013-05-11 23:51:00,
2013-05-11 19:56:00,62.9,59.0,0.00,WNW,293,0.0,0.0,87,0.00,,,0.26,WUHU216HW,2013-05-11 23:56:00,
2013-05-11 20:01:00,62.9,59.0,0.00,WNW,293,0.0,0.0,87,0.00,,,0.26,WUHU216HW,2013-05-12 00:01:00,
2013-05-11 20:06:00,62.9,59.0,0.00,WNW,293,0.0,0.0,87,0.00,,,0.26,WUHU216HW,2013-05-12 00:06:00,
2013-05-11 20:11:00,62.7,58.8,0.00,WNW,293,0.0,0.0,87,0.00,,,0.26,WUHU216HW,2013-05-12 00:11:00,
2013-05-11 20:16:00,62.7,58.8,0.00,WNW,293,0.0,0.0,87,0.00,,,0.26,WUHU216HW,2013-05-12 00:16:00,
2013-05-11 20:21:00,62.7,58.8,0.00,WNW,293,0.0,0.0,87,0.00,,,0.26,WUHU216HW,2013-05-12 00:21:00,
2013-05-11 20:26:00,62.6,58.6,0.00,WNW,293,0.0,0.0,87,0.00,,,0.26,WUHU216HW,2013-05-12 00:26:00,
2013-05-11 20:31:00,62.4,58.5,0.00,WNW,293,0.0,0.0,87,0.00,,,0.26,WUHU216HW,2013-05-12 00:31:00,
2013-05-11 20:36:00,62.4,58.5,0.00,WNW,293,0.0,0.0,87,0.00,,,0.26,WUHU216HW,2013-05-12 00:36:00,
2013-05-11 20:41:00,62.4,58.8,0.00,WNW,293,0.0,0.0,88,0.00,,,0.26,WUHU216HW,2013-05-12 00:41:00,
2013-05-11 20:46:00,62.4,58.8,0.00,WNW,293,0.0,0.0,88,0.00,,,0.26,WUHU216HW,2013-05-12 00:46:00,
2013-05-11 20:51:00,62.2,58.6,0.00,WNW,293,0.0,0.0,88,0.00,,,0.26,WUHU216HW,2013-05-12 00:51:00,
2013-05-11 20:56:00,62.2,58.6,0.00,WNW,293,0.0,0.0,88,0.00,,,0.26,WUHU216HW,2013-05-12 00:56:00,
2013-05-11 21:01:00,62.0,58.4,0.00,WNW,293,0.0,0.0,88,0.00,,,0.26,WUHU216HW,2013-05-12 01:01:00,
2013-05-11 21:06:00,61.8,58.3,0.00,WNW,293,0.0,0.0,88,0.00,,,0.26,WUHU216HW,2013-05-12 01:06:00,
2013-05-11 21:11:00,61.8,58.3,0.00,WNW,293,0.0,0.0,88,0.00,,,0.26,WUHU216HW,2013-05-12 01:11:00,
2013-05-11 21:16:00,61.7,58.1,0.00,WNW,293,0.0,0.0,88,0.00,,,0.26,WUHU216HW,2013-05-12 01:16:00,
2013-05-11 21:21:00,61.5,57.9,0.00,WNW,293,0.0,0.0,88,0.00,,,0.26,WUHU216HW,2013-05-12 01:21:00,
2013-05-11 21:26:00,61.5,57.9,0.00,WNW,293,0.0,0.0,88,0.00,,,0.26,WUHU216HW,2013-05-12 01:26:00,
2013-05-11 21:31:00,61.5,57.9,0.00,WNW,293,0.0,0.0,88,0.00,,,0.26,WUHU216HW,2013-05-12 01:31:00,
2013-05-11 21:36:00,61.3,57.7,0.00,WNW,293,0.0,0.0,88,0.00,,,0.26,WUHU216HW,2013-05-12 01:36:00,
2013-05-11 21:41:00,61.3,57.7,0.00,WNW,293,0.0,0.0,88,0.00,,,0.26,WUHU216HW,2013-05-12 01:41:00,
2013-05-11 21:46:00,61.3,57.7,0.00,SW,225,0.0,3.3,88,0.00,,,0.26,WUHU216HW,2013-05-12 01:46:00,
2013-05-11 21:51:00,61.1,57.6,0.00,WNW,293,0.0,3.3,88,0.00,,,0.26,WUHU216HW,2013-05-12 01:51:00,
2013-05-11 21:56:00,60.9,57.4,0.00,WNW,293,0.0,0.0,88,0.00,,,0.26,WUHU216HW,2013-05-12 01:56:00,
2013-05-11 22:01:00,60.6,57.0,0.00,WNW,293,0.0,0.0,88,0.00,,,0.26,WUHU216HW,2013-05-12 02:01:00,
2013-05-11 22:06:00,60.4,57.0,0.00,WNW,293,0.0,0.0,88,0.00,,,0.26,WUHU216HW,2013-05-12 02:06:00,
2013-05-11 22:11:00,60.0,56.7,0.00,SW,225,0.0,0.0,88,0.00,,,0.26,WUHU216HW,2013-05-12 02:11:00,
2013-05-11 22:16:00,59.9,56.3,0.00,SW,225,0.0,0.0,88,0.00,,,0.26,WUHU216HW,2013-05-12 02:16:00,
2013-05-11 22:21:00,59.7,56.1,0.00,SE,135,0.0,3.3,88,0.00,,,0.26,WUHU216HW,2013-05-12 02:21:00,
2013-05-11 22:26:00,59.5,56.0,0.00,SE,135,0.0,3.3,88,0.00,,,0.26,WUHU216HW,2013-05-12 02:26:00,
2013-05-11 22:31:00,59.5,56.0,0.00,WSW,248,0.0,0.0,88,0.00,,,0.26,WUHU216HW,2013-05-12 02:31:00,
2013-05-11 22:36:00,59.3,55.8,0.00,WSW,248,0.0,0.0,88,0.00,,,0.26,WUHU216HW,2013-05-12 02:36:00,
2013-05-11 22:41:00,59.1,55.6,0.00,WSW,248,0.0,0.0,88,0.00,,,0.26,WUHU216HW,2013-05-12 02:41:00,
2013-05-11 22:46:00,58.8,55.2,0.00,WSW,248,0.0,0.0,88,0.00,,,0.26,WUHU216HW,2013-05-12 02:46:00,
2013-05-11 22:51:00,58.8,55.2,0.00,WSW,248,0.0,0.0,88,0.00,,,0.26,WUHU216HW,2013-05-12 02:51:00,
2013-05-11 22:56:00,58.8,55.2,0.00,WSW,248,0.0,0.0,88,0.00,,,0.26,WUHU216HW,2013-05-12 02:56:00,
2013-05-11 23:01:00,58.8,55.2,0.00,WSW,248,0.0,0.0,88,0.00,,,0.26,WUHU216HW,2013-05-12 03:01:00,
2013-05-11 23:06:00,58.8,55.2,0.00,WNW,293,0.0,0.0,88,0.00,,,0.26,WUHU216HW,2013-05-12 03:06:00,
2013-05-11 23:11:00,58.6,55.1,0.00,WNW,293,0.0,3.5,88,0.00,,,0.26,WUHU216HW,2013-05-12 03:11:00,
2013-05-11 23:16:00,58.2,54.7,0.00,ESE,113,0.0,3.5,88,0.00,,,0.26,WUHU216HW,2013-05-12 03:16:00,
2013-05-11 23:21:00,58.1,54.5,0.00,NNE,23,0.0,0.0,88,0.00,,,0.26,WUHU216HW,2013-05-12 03:21:00,
2013-05-11 23:26:00,57.9,54.3,0.00,West,270,0.0,0.0,88,0.00,,,0.26,WUHU216HW,2013-05-12 03:26:00,
2013-05-11 23:31:00,57.7,54.2,0.00,West,270,2.0,2.0,88,0.00,,,0.26,WUHU216HW,2013-05-12 03:31:00,
2013-05-11 23:36:00,57.5,54.0,0.00,NW,315,0.0,2.0,88,0.00,,,0.26,WUHU216HW,2013-05-12 03:36:00,
2013-05-11 23:41:00,57.3,53.5,0.00,SE,135,0.0,0.0,87,0.00,,,0.26,WUHU216HW,2013-05-12 03:41:00,
2013-05-11 23:46:00,57.0,53.1,0.00,SE,135,0.0,0.0,87,0.00,,,0.26,WUHU216HW,2013-05-12 03:46:00,
2013-05-11 23:51:00,57.0,53.1,0.00,South,180,0.0,0.0,87,0.00,,,0.26,WUHU216HW,2013-05-12 03:51:00,
2013-05-11 23:56:00,56.8,52.9,0.00,WNW,293,1.1,1.7,87,0.00,,,0.26,WUHU216HW,2013-05-12 03:56:00,